Regional Weather Roundup
Issued by NWS Little Rock, AR

Home | Current Version | Previous Version | Graphics & Text | Print | Product List | Glossary Off
Versions: 1 2 3 4 5 6 7 8 9 10 11 12 13 14 15 16 17 18 19 20 21 22 23 24 25 26 27 28 29 30 31 32 33 34 35 36 37 38 39 40 41 42 43 44 45 46 47 48 49

000
ASUS44 KLZK 130905
RWRLZK

WEATHER ROUNDUP FOR ARKANSAS
NATIONAL WEATHER SERVICE LITTLE ROCK AR
400 AM CDT SUN JUL 13 2014

NOTE: "FAIR" INDICATES FEW OR NO CLOUDS BELOW 12,000 FEET WITH NO
SIGNIFICANT WEATHER AND/OR OBSTRUCTIONS TO VISIBILITY.

ARZ001-003-010-029-131000-
NORTHWEST ARKANSAS

CITY           SKY/WX    TMP DP  RH WIND       PRES   REMARKS
FAYETTEVILLE   CLEAR     68  67  96 CALM      30.08S
FORT SMITH     CLEAR     75  71  87 E3        30.04S
HARRISON       CLEAR     72  67  84 CALM      30.07S
BENTONVILLE    CLEAR     73  64  73 S5        30.08R
ROGERS         CLEAR     75  66  73 S9        30.08S
SILOAM SPGS    CLEAR     72  63  73 S5        30.08S
HIGHFILL       CLEAR     71  67  87 SW3       30.07S
$$

ARZ004-005-016-131000-
NORTH CENTRAL ARKANSAS

CITY           SKY/WX    TMP DP  RH WIND       PRES   REMARKS
BATESVILLE     CLEAR     77  72  83 NW3       30.03F
FLIPPIN        CLEAR     72  66  83 CALM      30.04S
MTN HOME       CLEAR     73  70  90 S3        30.04S
$$

ARZ040-041-131000-
WEST CENTRAL ARKANSAS

CITY           SKY/WX    TMP DP  RH WIND       PRES   REMARKS
MENA           CLEAR     72 N/A N/A CALM      30.09S
MOUNT IDA      CLEAR     69  68  96 CALM      30.05S FOG
$$

ARZ009-017-025-026-028-131000-
NORTHEAST ARKANSAS

CITY           SKY/WX    TMP DP  RH WIND       PRES   REMARKS
CORNING        FAIR      77  77 100 SW8       30.02S FOG
JONESBORO      CLEAR     78  74  87 SW7       30.02S
NEWPORT        CLEAR     77  76  96 SW5       30.04S FOG
WALNUT RIDGE   CLEAR     77  73  88 SW6       30.01F
BLYTHEVILLE    CLEAR     75  73  93 SW5       30.03S
$$

ARZ022-023-033-042-044-131000-
CENTRAL ARKANSAS

CITY           SKY/WX    TMP DP  RH WIND       PRES   REMARKS
LITTLE ROCK    CLEAR     77  73  87 SW3       30.04F
N LITTLE ROCK    N/A     78  75  90 SW5       30.04F
SEARCY         CLEAR     75  75 100 CALM      30.04F FOG
HOT SPRINGS    CLEAR     72  69  90 NW5       30.06F
RUSSELLVILLE   CLEAR     74  71  91 CALM      30.04S
CLINTON        FOG       72  72 100 CALM      30.05F VSB 1/2
$$

ARZ036-131000-
EAST ARKANSAS

CITY           SKY/WX    TMP DP  RH WIND       PRES   REMARKS
WEST MEMPHIS   CLEAR     75  74  96 S3        30.02F
$$

ARZ050-053-066-070-073-131000-
SOUTHWEST ARKANSAS

CITY           SKY/WX    TMP DP  RH WIND       PRES   REMARKS
ARKADELPHIA    FOG       72  72 100 CALM      30.04F VSB 1/4
CAMDEN         FOG       72  70  94 CALM      30.04S VSB 1/2
TEXARKANA      CLEAR     76  71  85 SW5       30.05F
EL DORADO      CLEAR     73  72  96 CALM      30.05F
DE QUEEN       CLEAR     71  70  96 CALM      30.04S
$$

ARZ056-057-069-131000-
SOUTHEAST ARKANSAS

CITY           SKY/WX    TMP DP  RH WIND       PRES   REMARKS
PINE BLUFF     CLEAR     75  72  90 CALM      30.03F
MONTICELLO     CLEAR     75  71  87 W6        30.04S

$$




USA.gov is the U.S. government's official web portal to all federal, state and local government web resources and services.